TimeEDT,TemperatureF,Dew PointF,Humidity,Sea Level PressureIn,VisibilityMPH,Wind Direction,Wind SpeedMPH,Gust SpeedMPH,PrecipitationIn,Events,Conditions,WindDirDegrees,DateUTC
12:53 AM,71.1,69.1,93,29.96,9.0,South,3.5,-,N/A,,Clear,180,2013-09-04 04:53:00
1:53 AM,70.0,69.1,97,29.97,10.0,Calm,Calm,-,N/A,,Clear,0,2013-09-04 05:53:00
2:53 AM,71.1,69.1,93,29.95,9.0,Calm,Calm,-,N/A,,Clear,0,2013-09-04 06:53:00
3:53 AM,69.1,68.0,96,29.95,7.0,Calm,Calm,-,N/A,,Clear,0,2013-09-04 07:53:00
4:32 AM,68.0,66.2,94,29.96,1.8,Calm,Calm,-,N/A,,Clear,0,2013-09-04 08:32:00
4:42 AM,66.2,66.2,100,29.97,3.0,SSE,4.6,-,N/A,,Clear,150,2013-09-04 08:42:00
4:53 AM,68.0,68.0,100,29.96,4.0,Calm,Calm,-,0.01,,Clear,0,2013-09-04 08:53:00
5:53 AM,70.0,68.0,93,29.98,9.0,Calm,Calm,-,N/A,,Clear,0,2013-09-04 09:53:00
6:33 AM,68.0,68.0,100,29.99,1.5,Calm,Calm,-,N/A,,Clear,0,2013-09-04 10:33:00
6:36 AM,66.2,66.2,100,29.99,3.0,Calm,Calm,-,N/A,,Mist,0,2013-09-04 10:36:00
6:49 AM,69.8,68.0,94,30.00,0.5,Calm,Calm,-,N/A,Fog,Fog,0,2013-09-04 10:49:00
6:53 AM,68.0,66.9,96,30.00,3.0,Calm,Calm,-,N/A,,Clear,0,2013-09-04 10:53:00
7:53 AM,70.0,70.0,100,30.02,3.0,Calm,Calm,-,N/A,,Clear,0,2013-09-04 11:53:00
8:53 AM,73.9,71.1,91,30.03,6.0,Calm,Calm,-,N/A,,Clear,0,2013-09-04 12:53:00
9:53 AM,79.0,72.0,79,30.04,6.0,Calm,Calm,-,N/A,,Haze,0,2013-09-04 13:53:00
10:53 AM,84.0,73.0,69,30.05,6.0,Calm,Calm,-,N/A,,Haze,0,2013-09-04 14:53:00
11:53 AM,88.0,73.0,61,30.05,10.0,Calm,Calm,-,N/A,,Clear,0,2013-09-04 15:53:00
12:53 PM,90.0,71.1,54,30.04,10.0,Variable,4.6,-,N/A,,Partly Cloudy,0,2013-09-04 16:53:00
1:53 PM,91.0,70.0,50,30.03,10.0,West,5.8,-,N/A,,Partly Cloudy,280,2013-09-04 17:53:00
2:53 PM,90.0,69.1,50,30.02,10.0,West,6.9,-,N/A,,Overcast,280,2013-09-04 18:53:00
3:53 PM,93.0,68.0,44,30.01,10.0,WNW,6.9,-,N/A,,Mostly Cloudy,290,2013-09-04 19:53:00
4:53 PM,91.0,68.0,47,30.00,10.0,NW,4.6,-,N/A,,Scattered Clouds,320,2013-09-04 20:53:00
5:53 PM,88.0,71.1,57,29.99,10.0,NE,5.8,-,N/A,,Partly Cloudy,40,2013-09-04 21:53:00
6:53 PM,88.0,71.1,57,29.99,10.0,NNE,4.6,-,N/A,,Clear,30,2013-09-04 22:53:00
7:53 PM,82.0,73.9,76,30.02,10.0,Calm,Calm,-,0.01,,Clear,0,2013-09-04 23:53:00
8:53 PM,77.0,73.9,90,30.03,10.0,Calm,Calm,-,0.00,,Clear,0,2013-09-05 00:53:00
9:53 PM,73.9,73.0,97,30.06,8.0,Calm,Calm,-,N/A,,Partly Cloudy,0,2013-09-05 01:53:00
10:53 PM,75.9,73.0,91,30.07,8.0,Calm,Calm,-,N/A,,Clear,0,2013-09-05 02:53:00
11:53 PM,75.0,73.0,94,30.07,9.0,Calm,Calm,-,N/A,,Clear,0,2013-09-05 03:53:00